Weather Roundup
Issued by NWS

Home | Current Version | Previous Version | Graphics & Text | Print | Product List | Glossary Off
Versions: 1 2 3 4 5 6 7 8 9 10 11 12 13 14 15 16 17 18 19 20 21 22 23 24 25 26 27 28 29 30 31 32 33 34 35 36 37 38 39 40 41 42 43 44 45 46 47 48 49 50

039
NZUS93 KARX 230510
HRRWXR

CURRENT HOURLY OBSERVATIONS ACROSS
MUCH OF THE UPPER MISSISSIPPI VALLEY
NATIONAL WEATHER SERVICE LA CROSSE WI
1200 AM CDT THU MAR 23 2017


...SOUTHEAST MINNESOTA...


CITY           SKY/WX    TMP DP  RH WIND       PRES   REMARKS
ROCHESTER      CLOUDY    35  19  52 S15       30.29S WCI  25
ROCHESTER/MAYO CLOUDY    36  16  44 SE12      30.29F WCI  27
WINONA         CLOUDY    37  14  38 SE9       30.34S WCI  31
AUSTIN         CLOUDY    36  19  51 SE12      30.26F WCI  27
ALBERT LEA     CLOUDY    36  19  51 SE17G26   30.24F WCI  25
DODGE CENTER   CLOUDY    34  21  60 SE16      30.27F WCI  23
PRESTON        CLOUDY    35  16  47 SE15      30.30F WCI  25
OWATONNA       CLOUDY    36  18  48 SE14G22   30.25F WCI  27
FARIBAULT      CLOUDY    37  19  48 SE14      30.26F WCI  29
$$

...ELSEWHERE IN MINNESOTA...


CITY           SKY/WX    TMP DP  RH WIND       PRES   REMARKS
MINNEAPOLIS    CLOUDY    37  15  40 SE13      30.27F WCI  29
INTNL FALLS    FLURRIES  30  20  66 S10G16    30.21R WCI  21
DULUTH         FLURRIES  29  21  72 E12       30.26F WCI  19
RED WING       CLOUDY    37  10  32 SE10      30.30F WCI  30
REDWOOD FALLS  CLOUDY    37  23  56 SE18G26   30.18S WCI  27
MANKATO        CLOUDY    37  21  52 SE18G26   30.23F WCI  27
WORTHINGTON    CLOUDY    36  23  59 SE16      30.15F WCI  26
FAIRMONT       CLOUDY    36  23  59 SE17G26   30.20S WCI  26
$$

...SOUTHWEST WISCONSIN...


CITY           SKY/WX    TMP DP  RH WIND       PRES   REMARKS
LA CROSSE      CLOUDY    38  15  39 SE10      30.35F WCI  31
PRAIRIE DU CHI CLOUDY    37  18  46 E6        30.37R WCI  32
BOSCOBEL       CLOUDY    36  19  50 SE3       30.39S
LONE ROCK      CLOUDY    33  20  58 SE12      30.40F WCI  24
PLATTEVILLE    MOCLDY    34  23  65 SE12      30.37S WCI  25
FORT MC COY    MOCLDY    33  17  51 E5        30.37F WCI  28
MAUSTON-NEW LI CLOUDY    32  20  61 SE9       30.38F WCI  24
VIROQUA        CLOUDY    33  17  52 SE10      30.34S WCI  25
WIS DELLS      CLOUDY    29  21  70 SE9       30.40F WCI  21
$$

...ELSEWHERE IN WISCONSIN...


CITY           SKY/WX    TMP DP  RH WIND       PRES   REMARKS
MILWAUKEE      CLEAR     26  17  68 CALM      30.49R
MADISON        CLEAR     26  19  74 SE10      30.42F WCI  16
GREEN BAY      CLEAR     25  20  81 SE5       30.49S WCI  19
EAU CLAIRE     CLOUDY    34  11  38 SE8       30.33F WCI  27
BLACK RVR FLS  MOCLDY    33  11  40 CALM      30.37R
MEDFORD        CLOUDY    28  16  58 SE8       30.35F WCI  20
WAUSAU         MOCLDY    27  15  61 SE8       30.38F WCI  19
WIS RAPIDS     MOCLDY    28  19  69 SE9       30.41F WCI  19
MARSHFIELD     CLOUDY    29  16  58 SE12      30.36F WCI  19
RICE LAKE      CLOUDY    33  10  38 CALM      30.33F
$$

...NORTHEAST IOWA...


CITY           SKY/WX    TMP DP  RH WIND       PRES   REMARKS
WATERLOO       CLOUDY    36  21  54 SE9       30.31F WCI  29
DUBUQUE        CLOUDY    35  22  58 SE15      30.36S WCI  25
DECORAH        CLOUDY    36  19  51 S9G15     30.32R WCI  29
MASON CITY     CLOUDY    35  21  56 SE16      30.26F WCI  25
CHARLES CITY   PTCLDY    36  21  55 SE13      30.29F WCI  27
OELWEIN        CLOUDY    36  25  64 SE15      30.33F WCI  26
$$

...ELSEWHERE IN IOWA...


CITY           SKY/WX    TMP DP  RH WIND       PRES   REMARKS
DES MOINES     CLOUDY    42  18  37 SE14      30.27R
IOWA CITY      CLOUDY    37  22  54 SE14      30.36F WCI  28
FORT DODGE     CLOUDY    39  19  45 SE13      30.22S WCI  32
MARSHALLTOWN   CLOUDY    38  20  48 SE16      30.28F WCI  29
CEDAR RAPIDS   CLOUDY    35  22  58 SE13      30.33S WCI  26
$$

...NORTHERN ILLINOIS...


CITY           SKY/WX    TMP DP  RH WIND       PRES   REMARKS
CHICAGO-OHARE  PTCLDY    31  20  63 NE3       30.48R
CHICAGO-MIDWAY PTCLDY    32  24  72 VRB6      30.48S WCI  26
MOLINE         CLOUDY    35  20  54 SE9       30.39F WCI  28
ROCKFORD       CLOUDY    30  18  60 E9        30.46F WCI  22
PEORIA         CLOUDY    35  21  56 SE8       30.41F WCI  29
$$

NOTE: "FAIR" INDICATES FEW OR NO CLOUDS BELOW 12,000 FEET WITH NO
SIGNIFICANT WEATHER AND/OR OBSTRUCTIONS TO VISIBILITY. WIND
SPEEDS ARE IN MILES-PER-HOUR.




USA.gov is the U.S. government's official web portal to all federal, state and local government web resources and services.